Regional Weather Roundup
Issued by NWS

Home | Current Version | Previous Version | Text Only | Print | Product List | Glossary Off
Versions: 1 2 3 4 5 6 7 8 9 10 11 12 13 14 15 16 17 18 19 20 21 22 23 24 25 26 27 28 29 30 31 32 33 34 35 36 37 38 39 40 41 42 43 44 45 46 47 48 49 50

000
ASUS43 KIND 220909
RWRIN

WEATHER ROUNDUP FOR INDIANA
NATIONAL WEATHER SERVICE INDIANAPOLIS IN
500 AM EDT FRI MAY 22 2015

NOTE: "FAIR" INDICATES FEW OR NO CLOUDS BELOW 12,000 FEET WITH NO
SIGNIFICANT WEATHER AND/OR OBSTRUCTIONS TO VISIBILITY.

* - STATION DOES NOT REPORT WEATHER SUCH AS PRECIPITATION OR FOG.

+ - STATION NOT QUALITY CONTROLLED BY THE NATIONAL WEATHER SERVICE.
    USE DATA WITH CAUTION...ESPECIALLY DEWPOINT AND RELATIVE
    HUMIDITY OBSERVATIONS.

INZ001>003-010>013-019-020-221000-
NORTHWEST INDIANA

CITY           SKY/WX    TMP DP  RH WIND       PRES   REMARKS
GARY /AIRPORT/ CLEAR     47  43  85 CALM      30.08R
KNOX *+        PTCLDY    45  41  87 CALM      30.08R
LA PORTE +     PTCLDY    48  44  83 CALM      30.08R
MICHIGAN CITY+ CLEAR     45  39  81 CALM      30.07S
MONTICELLO +   CLEAR     48  42  77 SW7       30.08R
RENSSELAER +   CLEAR     48  45  87 SW7       30.08R
VALPARAISO     CLEAR     50  41  71 CALM      30.08R

$$

LMZ046-743>745-221000-
SOUTHERN LAKE MICHIGAN

STATION/POSITION TIME  TEMP    WIND        PRES    WAVE
                       AIR SEA DIR/SP/G            HT
                 (UTC) (F)     (DEG/KT/KT) (MB)    (FT)
BURNS HARBOR     0900   55     200/  4/  4 1018.6S
MICHIGAN CITY    0900   55     160/  3/  4   N/A
5NW MICH CITY    0900   53 51  200/  4/  4   N/A     1

$$

INZ004-005-014>016-021>024-221000-
NORTH CENTRAL INDIANA

CITY           SKY/WX    TMP DP  RH WIND       PRES   REMARKS
GOSHEN         MOCLDY    49  42  77 SW3       30.07S
LOGANSPORT +   PTCLDY    46  37  71 SW8       30.09S
PERU/GRISSOM   CLEAR     49  41  73 SW10      30.07S
ROCHESTER +    PTCLDY    50  43  76 NE5       30.10R
SOUTH BEND     PTCLDY    50  40  68 SW6       30.07S
WARSAW +       MOCLDY    50  41  71 W5        30.08F

$$

INZ006>009-017-018-025>027-221000-
NORTHEAST INDIANA

CITY           SKY/WX    TMP DP  RH WIND       PRES   REMARKS
ANGOLA *+      MOCLDY    54  43  66 NW13      30.07R
AUBURN +       PTCLDY    48  37  66 W3        30.08S
FORT WAYNE     PTCLDY    47  40  76 W8        30.10R
HUNTINGTON +   CLEAR     48  39  71 N5        30.10R

$$

INZ028-029-035-036-043>045-051>053-221000-
WEST CENTRAL INDIANA

CITY           SKY/WX    TMP DP  RH WIND       PRES   REMARKS
CRAWFORDSVL +  CLEAR     45  37  76 SW7       30.12S
GREENCASTLE +  CLEAR     45  37  76 CALM      30.15R
LAFAYETTE      PTCLDY    46  42  86 SW5       30.10S
TERRE HAUTE    CLEAR     50  42  74 SW9       30.15S

$$

INZ030>032-037>040-046>048-054>057-064-065-221000-
CENTRAL INDIANA

CITY           SKY/WX    TMP DP  RH WIND       PRES   REMARKS
CP ATTERBURY + CLEAR     48  43  81 W9        30.15R
FRANKFORT +    CLEAR     47  42  82 S6        30.12S
INDIANAPOLIS   CLEAR     47  41  80 SW10      30.12R
-EAGLE CREEK   CLEAR     47  41  80 SW5       30.12R
KOKOMO *+      CLEAR     48  39  71 W9        30.09S
MARION +       CLEAR     44  38  78 SW7       30.10S
MT COMFORT *+  CLEAR     48  37  66 SW8       30.13R
SHELBYVILLE    CLEAR     46  41  82 SW5       30.13R
ZIONSVILLE +   CLEAR     49  40  71 W8        30.12S

$$

INZ033-034-041-042-049-050-058-059-221000-
EAST CENTRAL INDIANA

CITY           SKY/WX    TMP DP  RH WIND       PRES   REMARKS
MUNCIE         CLEAR     49  40  71 SW8       30.10S

$$

INZ060-061-067>069-081>083-085>088-221000-
SOUTHWEST INDIANA

CITY           SKY/WX    TMP DP  RH WIND       PRES   REMARKS
EVANSVILLE     CLEAR     46  43  89 W6        30.21R
HUNTINGBURG *+ CLEAR     45  39  81 SW5       30.21R
WASHINGTON +   CLEAR     48  41  76 W3        30.18R

$$

INZ062-063-066-070>080-084-089>092-221000-
SOUTH CENTRAL AND SOUTHEAST INDIANA

CITY           SKY/WX    TMP DP  RH WIND       PRES   REMARKS
BLOOMINGTON    CLEAR     50  42  74 W8        30.16R
MADISON *+     CLEAR     41  37  87 CALM      30.19R
NORTH VERNON + CLEAR     43  43 100 CALM      30.17R
SEYMOUR +      CLEAR     45  41  87 SW3       30.16R

$$



USA.gov is the U.S. government's official web portal to all federal, state and local government web resources and services.